Hourly Data Report for September 12, 2017

All times are specified in Local Standard Time (LST). Add 1 hour to adjust for Daylight Saving Time where and when it is observed.

GJOA HAVEN A
NUNAVUT

68°38'08.000" N
95°51'01.000" W
46.90 m
2302337
71597
YHK

Download Data

Hourly Data (September 2017)
Hourly Data Report for September 12, 2017
Temp Definition
°C
Dew Point Temp Definition
°C
Rel Hum Definition
%
Wind Dir Definition
10's deg

Wind Spd Definition
km/h
Visibility Definition
km
Stn Press Definition
kPa
Hmdx Definition


Wind Chill Definition


Weather Definition


TIME
00:00 Legend Double Dagger 0.0 -1.8 88 7 22 16.1 100.68   -6 LegendNANA
01:00 Legend Double Dagger -0.3 -1.4 92 6 22 16.1 100.72   -6 LegendNANA
02:00 Legend Double Dagger -0.6 -1.5 94 6 21 16.1 100.78   -6 LegendNANA
03:00 Legend Double Dagger -0.9 -1.5 96 7 15 16.1 100.82   -6 LegendNANA
04:00 Legend Double Dagger -1.1 -1.7 96 6 21 16.1 100.83   -7 LegendNANA
05:00 Legend Double Dagger -0.9 -1.6 95 6 17 16.1 100.84   -6 LegendNANA
06:00 Legend Double Dagger -1.0 -1.8 94 6 22 16.1 100.85   -7 LegendNANA
07:00 Legend Double Dagger -0.8 -1.7 94 5 24 16.1 100.88   -7 LegendNANA
08:00 Legend Double Dagger -0.4 -1.3 94 6 21 16.1 100.89   -6 LegendNANA
09:00 Legend Double Dagger 0.0 -1.0 93 8 21 16.1 100.91   -5 LegendNANA
10:00 Legend Double Dagger 0.3 -1.2 90 8 21 16.1 100.92     LegendNANA
11:00 Legend Double Dagger 0.6 -0.9 90 7 21 16.1 100.93     LegendNANA
12:00 Legend Double Dagger 0.6 -1.0 89 6 8 16.1 100.97     LegendNANA
13:00 Legend Double Dagger 0.8 -0.7 90 8 13 16.1 100.99     LegendNANA
14:00 Legend Double Dagger 1.0 -0.5 90 7 13 16.1 101.00     LegendNANA
15:00 Legend Double Dagger 1.3 -0.2 90 8 15 16.1 101.01     LegendNANA
16:00 Legend Double Dagger 1.5 0.2 91 7 11 16.1 101.04     LegendNANA
17:00 Legend Double Dagger 0.9 -0.1 93 4 11 16.1 101.07     LegendNANA
18:00 Legend Double Dagger 0.7 0.0 95 5 17 16.1 101.06     LegendNANA
19:00 Legend Double Dagger 0.6 0.0 96 7 17 16.1 101.05     LegendNANA
20:00 Legend Double Dagger 1.3 0.7 96 9 18 16.1 101.04     LegendNANA
21:00 Legend Double Dagger 1.4 0.7 95 10 15 16.1 101.05     LegendNANA
22:00 Legend Double Dagger 1.4 0.7 95 11 17 16.1 101.04     LegendNANA
23:00 Legend Double Dagger 1.8 1.0 94 13 17 16.1 101.05     LegendNANA

Notes on Data Quality.

Legend

  • E = Estimated
  • M = Missing
  • NA = Not Available
  • ‡ = Partner data that is not subject to review by the National Climate Archives
Date modified: